AEROCUBE 10B (DOUGSAT) (44484 NORAD) Tracking and Keplerian Element Data

This shows tracking and keplerian element data for the satellite.

Feedback or suggestion? Click here.




ElementValue
Catalog44484
NameAEROCUBE 10B (DOUGSAT)
Epoch Orbit433
Epoch Day247.62881826
Epoch Year2019
RAAN331.7571
Inclination51.6438
Eccentricity0.0010114
Argument of Perigee5.0755
Mean Anonmoly355.0325
Mean Motion15.29250767
Decay Rate1.243E-05
L11 44484U 19022C 19247.62881826 .00001243 00000-0 55673-4 0 9992
L22 44484 51.6438 331.7571 0010114 5.0755 355.0325 15.29250767 4336

Live tracking and technical data element details for AEROCUBE 10B (DOUGSAT) (NORAD 44484). AEROCUBE 10B (DOUGSAT) can be tracked NOW for your location showing map with azimuth and elevation plus other details from your city location.

Track the satellite on the map from your city or location and see movement details for azimuth, elevation, latitude, longitude, range, height, and movement on the map or in text.







IsCatalogInMostPopularTable: catalog: 44484, numindb: 15
Update: records affected: 1



GetName: 44484 AEROCUBE 10B (DOUGSAT)

Hit Count: updated at: Wed, 23 Oct 2019 00:22:13 GMT